TimeAKST,TemperatureF,Dew PointF,Humidity,Sea Level PressureIn,VisibilityMPH,Wind Direction,Wind SpeedMPH,Gust SpeedMPH,PrecipitationIn,Events,Conditions,WindDirDegrees,DateUTC
12:01 AM,-14.1,-22.0,68,30.00,10.0,ENE,5.8,-,N/A,,Clear,70,2013-02-20 09:01:00
1:01 AM,-11.9,-18.9,71,29.98,10.0,NE,6.9,-,N/A,,Clear,40,2013-02-20 10:01:00
2:01 AM,-15.0,-22.0,71,29.97,10.0,NE,5.8,-,N/A,,Clear,50,2013-02-20 11:01:00
3:01 AM,-16.1,-20.9,79,29.94,10.0,ENE,5.8,-,N/A,,Clear,70,2013-02-20 12:01:00
4:01 AM,-11.9,-18.0,74,29.91,10.0,Calm,Calm,-,N/A,,Clear,0,2013-02-20 13:01:00
5:01 AM,-15.0,-20.9,75,29.89,10.0,Calm,Calm,-,N/A,,Clear,0,2013-02-20 14:01:00
6:01 AM,-15.0,-20.0,78,29.88,10.0,Calm,Calm,-,N/A,,Clear,0,2013-02-20 15:01:00
7:01 AM,-15.0,-20.9,75,29.87,10.0,NE,3.5,-,N/A,,Clear,50,2013-02-20 16:01:00
8:01 AM,-14.1,-20.0,75,29.87,10.0,NE,4.6,-,N/A,,Clear,50,2013-02-20 17:01:00
9:01 AM,-14.1,-20.0,75,29.87,10.0,NE,5.8,-,N/A,,Clear,50,2013-02-20 18:01:00
10:01 AM,-13.0,-18.9,75,29.86,10.0,NE,4.6,-,N/A,,Clear,50,2013-02-20 19:01:00
11:01 AM,-6.0,-15.0,65,29.85,10.0,North,3.5,-,N/A,,Clear,350,2013-02-20 20:01:00
12:01 PM,-5.1,-16.1,59,29.85,10.0,ENE,4.6,-,N/A,,Clear,60,2013-02-20 21:01:00
1:01 PM,-2.0,-14.1,57,29.83,10.0,ENE,3.5,-,N/A,,Clear,70,2013-02-20 22:01:00
2:01 PM,1.0,-11.9,55,29.83,10.0,East,4.6,-,N/A,,Clear,90,2013-02-20 23:01:00
3:01 PM,1.0,-11.0,57,29.82,10.0,East,4.6,-,N/A,,Clear,80,2013-02-21 00:01:00
4:01 PM,3.0,-9.9,55,29.81,10.0,Calm,Calm,-,N/A,,Clear,0,2013-02-21 01:01:00
5:01 PM,3.9,-9.0,55,29.81,10.0,Calm,Calm,-,N/A,,Clear,0,2013-02-21 02:01:00
6:01 PM,3.0,-9.9,55,29.83,10.0,Calm,Calm,-,N/A,,Clear,0,2013-02-21 03:01:00
7:01 PM,-0.9,-11.0,62,29.83,10.0,ENE,8.1,-,N/A,,Clear,70,2013-02-21 04:01:00
8:01 PM,-2.0,-11.0,66,29.82,10.0,NE,8.1,-,N/A,,Clear,50,2013-02-21 05:01:00
9:01 PM,-7.1,-15.0,68,29.83,10.0,NNE,5.8,-,N/A,,Clear,20,2013-02-21 06:01:00
10:01 PM,-9.9,-16.1,74,29.83,10.0,Calm,Calm,-,N/A,,Clear,0,2013-02-21 07:01:00
11:01 PM,-7.1,-14.1,72,29.83,10.0,ENE,5.8,-,N/A,,Clear,60,2013-02-21 08:01:00